Olive Branch, MS

4:35 AM CST on February 25, 2017 (GMT -0600)
Olive Branch

Weather History for KOLV - November, 2012

Change the Weather History Date:

Tuesday, November 27, 2012

  Actual Average (KMEM) Record (KMEM)
Temperature  
Mean Temperature 38 °F -  
Max Temperature 44 °F 60 °F 79 °F (1990)
Min Temperature 32 °F 42 °F 20 °F (1938)
Degree Days  
Heating Degree Days 27    
Moisture  
Dew Point 36 °F    
Average Humidity 96    
Maximum Humidity 100    
Minimum Humidity 66    
Precipitation  
Precipitation 0.01 in - - ()
Sea Level Pressure  
Sea Level Pressure 30.31 in    
Wind  
Wind Speed 11 mph (North)    
Max Wind Speed 16 mph    
Max Gust Speed 24 mph    
Visibility 8 miles    
Events      
Averages and records for this station are not official NWS values.
T = Trace of Precipitation, MM = Missing Value Source: NWS Daily Summary

Daily Weather History Graph

Daily Weather History Graph

Search for Another Location

Airport or City:

Trip Planner

Search our weather history database for the weather conditions in past years. The results will help you decide how hot, cold, wet, or windy it might be!

Date:

Astronomy

Nov. 27, 2012 Rise Set
Actual Time 6:45 AM CST 4:48 PM CST
Civil Twilight 6:18 AM CST 5:15 PM CST
Nautical Twilight 5:46 AM CST 5:46 PM CST
Astronomical Twilight 5:16 AM CST 6:17 PM CST
Moon 4:19 PM CST (11/27) 5:51 AM CST (11/27)
Length of Visible Light 10h 57m
Length of Day
10h 02m
Waxing Gibbous, 99% of the Moon is Illuminated
Nov 27
Waxing Gibbous
Nov 28
Full
Dec 6
Last Quarter
Dec 13
New
Dec 19
First Quarter

Hourly Weather History & Observations

Time (CST) Temp. Windchill Dew Point Humidity Pressure Visibility Wind Dir Wind Speed Gust Speed Precip Events Conditions
12:15 AM 42.8 °F 35.4 °F 42.8 °F 100% 30.21 in 8.0 mi North 15.0 mph 18.4 mph 0.00 in   Overcast
12:35 AM 41.0 °F 33.9 °F 41.0 °F 100% 30.22 in 8.0 mi NNE 12.7 mph 24.2 mph 0.00 in   Overcast
12:55 AM 41.0 °F 32.8 °F 41.0 °F 100% 30.21 in 2.0 mi North 16.1 mph - 0.01 in   Overcast
1:15 AM 39.2 °F 30.8 °F 39.2 °F 100% 30.21 in 7.0 mi North 15.0 mph - 0.00 in   Overcast
1:35 AM 39.2 °F 30.8 °F 39.2 °F 100% 30.22 in 7.0 mi North 15.0 mph 20.7 mph 0.00 in   Overcast
1:55 AM 39.2 °F 30.8 °F 39.2 °F 100% 30.23 in 8.0 mi North 15.0 mph 19.6 mph 0.00 in   Overcast
2:15 AM 39.2 °F 31.2 °F 39.2 °F 100% 30.23 in 8.0 mi NNE 13.8 mph - 0.00 in   Overcast
2:35 AM 39.2 °F 30.8 °F 39.2 °F 100% 30.24 in 7.0 mi North 15.0 mph 21.9 mph 0.00 in   Overcast
2:55 AM 39.2 °F 31.6 °F 39.2 °F 100% 30.24 in 7.0 mi NNE 12.7 mph 18.4 mph 0.00 in   Overcast
3:15 AM 39.2 °F 30.5 °F 39.2 °F 100% 30.24 in 6.0 mi North 16.1 mph 19.6 mph 0.00 in   Overcast
3:35 AM 37.4 °F 28.2 °F 37.4 °F 100% 30.24 in 7.0 mi NNE 16.1 mph 24.2 mph 0.00 in   Overcast
3:55 AM 37.4 °F 28.9 °F 37.4 °F 100% 30.23 in 7.0 mi NNE 13.8 mph 18.4 mph N/A   Overcast
4:35 AM 37.4 °F 29.3 °F 37.4 °F 100% 30.24 in 8.0 mi NNE 12.7 mph 18.4 mph 0.00 in   Overcast
4:55 AM 37.4 °F 29.3 °F 37.4 °F 100% 30.25 in 6.0 mi NNE 12.7 mph 18.4 mph N/A   Overcast
5:15 AM 37.4 °F 30.8 °F 37.4 °F 100% 30.26 in 9.0 mi North 9.2 mph 19.6 mph 0.00 in   Overcast
5:35 AM 37.4 °F 28.5 °F 37.4 °F 100% 30.26 in 8.0 mi NNE 15.0 mph - 0.00 in   Overcast
5:55 AM 37.4 °F 29.8 °F 37.4 °F 100% 30.26 in 8.0 mi NNE 11.5 mph - 0.00 in   Overcast
6:50 AM 35.6 °F 28.6 °F 33.8 °F 93% 30.30 in 10.0 mi NNE 9.2 mph - N/A   Mostly Cloudy
7:50 AM 33.8 °F 26.4 °F 33.8 °F 100% 30.31 in 10.0 mi North 9.2 mph 20.7 mph N/A   Mostly Cloudy
8:50 AM 33.8 °F 26.4 °F 32.0 °F 93% 30.35 in 10.0 mi NNE 9.2 mph 18.4 mph N/A   Mostly Cloudy
9:50 AM 35.6 °F 27.5 °F 33.8 °F 93% 30.37 in 10.0 mi North 11.5 mph - N/A   Mostly Cloudy
10:45 AM 37.4 °F 30.3 °F 33.8 °F 87% 30.37 in 8.0 mi NNE 10.4 mph - N/A   Mostly Cloudy
11:50 AM 39.2 °F 35.0 °F 33.8 °F 81% 30.36 in 10.0 mi NNW 5.8 mph - N/A   Mostly Cloudy
12:50 PM 42.8 °F 37.0 °F 35.6 °F 76% 30.33 in 10.0 mi North 10.4 mph - N/A   Mostly Cloudy
1:50 PM 44.6 °F 38.8 °F 35.6 °F 71% 30.32 in 10.0 mi North 11.5 mph - N/A   Mostly Cloudy
2:50 PM 44.6 °F 39.2 °F 33.8 °F 66% 30.32 in 10.0 mi North 10.4 mph - N/A   Partly Cloudy
4:50 PM 39.2 °F 35.9 °F 33.8 °F 81% 30.34 in 10.0 mi North 4.6 mph - N/A   Clear
5:50 PM 35.6 °F 30.7 °F 35.6 °F 100% 30.34 in 10.0 mi North 5.8 mph - N/A   Clear
6:55 PM 35.6 °F - 35.6 °F 100% 30.35 in 10.0 mi Calm Calm - N/A   Clear
7:50 PM 35.6 °F - 35.6 °F 100% 30.36 in 7.0 mi Calm Calm - N/A   Clear
8:15 PM 33.8 °F - 33.8 °F 100% 30.36 in 10.0 mi Calm Calm - 0.00 in   Clear
8:35 PM 33.8 °F - 33.8 °F 100% 30.36 in 9.0 mi Calm Calm - 0.00 in   Clear
8:55 PM 33.8 °F - 33.8 °F 100% 30.35 in 10.0 mi Calm Calm - N/A   Clear
9:15 PM 33.8 °F - 33.8 °F 100% 30.36 in 9.0 mi Calm Calm - 0.00 in   Clear
9:35 PM 32.0 °F 26.4 °F 32.0 °F 100% 30.37 in 7.0 mi North 5.8 mph - 0.00 in   Clear
9:55 PM 32.0 °F 27.5 °F 32.0 °F 100% 30.37 in 5.0 mi North 4.6 mph - 0.00 in   Clear
10:15 PM 32.0 °F - 32.0 °F 100% 30.37 in 9.0 mi Calm Calm - 0.00 in   Clear
10:35 PM 32.0 °F - 32.0 °F 100% 30.37 in 8.0 mi Calm Calm - 0.00 in   Clear
10:55 PM 32.0 °F - 32.0 °F 100% 30.37 in 6.0 mi Calm Calm - 0.00 in   Clear
11:15 PM 32.0 °F - 32.0 °F 100% 30.38 in 8.0 mi Calm Calm - 0.00 in   Clear
11:35 PM 32.0 °F - 32.0 °F 100% 30.39 in 5.0 mi Calm Calm - 0.00 in   Clear
11:55 PM 32.0 °F - 32.0 °F 100% 30.39 in 7.0 mi Calm Calm - 0.00 in   Clear